Le nostre stazioni meteo in Italia

Pubblicità
Il mio iltempo24.it
Lyon/Bron, Francia (7480): Temperatura & dewpoint: 16.11.2019 08:00:00 - 22.11.2019 08:00:00 (CET)Lyon/Bron, Francia (7480): Temperatura 5cm: 16.11.2019 08:00:00 - 22.11.2019 08:00:00 (CET)Lyon/Bron, Francia (7480): Temperatura -20cm: 16.11.2019 08:00:00 - 22.11.2019 08:00:00 (CET)Lyon/Bron, Francia (7480): velocità del vento & gusts: 16.11.2019 08:00:00 - 22.11.2019 08:00:00 (CET)Lyon/Bron, Francia (7480): direzione del vento: 16.11.2019 08:00:00 - 22.11.2019 08:00:00 (CET)Lyon/Bron, Francia (7480): reduced air pressure: 16.11.2019 08:00:00 - 22.11.2019 08:00:00 (CET)Lyon/Bron, Francia (7480): visibility: 16.11.2019 08:00:00 - 22.11.2019 08:00:00 (CET)Lyon/Bron, Francia (7480): ore di luce: 16.11.2019 08:00:00 - 22.11.2019 08:00:00 (CET)Lyon/Bron, Francia (7480): precipitazioni: 16.11.2019 08:00:00 - 22.11.2019 08:00:00 (CET)
Data & Tempo tt [°C] td [°C] tt 5cm [°C] tt -20cm [°C] ff [km/h] ff [kn] fx [km/h] fx [kn] dd ppp [hPa] vv [km] sd [min] rr [mm]
22.11.2019 08:00:00 6,1 5,1 3,6 8,4 5 3 14 8 ESE 1007,4 12 0 0,0
22.11.2019 07:00:00 6,9 6,0 5,8 8,4 7 4 11 6 NE 1007,2 11 0 0,2
22.11.2019 06:00:00 7,0 5,6 6,0 8,4 9 5 23 12 E 1007,9 13 0 0,0
22.11.2019 05:00:00 7,2 5,8 6,1 8,4 8 4 13 7 E 1007,9 18 0 0,0
22.11.2019 04:00:00 7,6 5,7 6,4 8,4 5 3 14 8 ENE 1007,9 60 0 0,0
22.11.2019 03:00:00 8,0 5,8 6,7 8,4 4 2 24 13 SO 1008,4 54 0 0,0
22.11.2019 02:00:00 7,9 5,9 6,8 8,4 16 9 29 16 SSE 1008,2 60 0 0,0
22.11.2019 01:00:00 7,8 6,6 6,9 8,4 8 5 22 12 ESE 1008,2 28 0 0,4
22.11.2019 00:00:00 8,0 6,9 7,1 8,4 12 7 21 11 ESE 1008,3 14 0 0,6
21.11.2019 23:00:00 7,8 6,9 6,8 8,4 15 8 26 14 SE 1008,5 4,4 0 0,4
21.11.2019 22:00:00 7,7 6,5 6,9 8,4 14 8 21 11 ESE 1008,1 8 0 0,2
21.11.2019 21:00:00 7,7 6,5 6,5 8,3 7 4 15 8 ESE 1008,4 7 0 0,2
21.11.2019 20:00:00 7,8 5,9 6,5 8,3 0 0 11 6 N 1008,1 7 0 0,4
21.11.2019 19:00:00 8,2 5,1 7,6 8,2 6 4 17 9 ESE 1007,5 12 0 0,0
21.11.2019 18:00:00 8,6 5,0 8,1 8,2 10 5 17 9 ESE 1007,5 14 0 0,0
21.11.2019 17:00:00 9,5 5,7 8,9 8,1 10 5 17 9 ESE 1007,1 25 0 0,0
21.11.2019 16:00:00 10,0 5,8 9,6 8,0 10 5 22 12 SSE 1007,1 55 0 0,0
21.11.2019 15:00:00 10,8 5,5 10,7 7,8 18 10 26 14 S 1006,9 57 7 0,0
21.11.2019 14:00:00 10,8 4,7 10,1 7,7 5 3 13 7 SE 1007,2 14 7 0,0
21.11.2019 13:00:00 9,9 4,1 10,5 7,6 9 5 22 12 SE 1007,8 20 25 0,0
21.11.2019 12:00:00 10,5 4,4 12,7 7,6 13 7 21 12 ESE 1008,2 10 58 0,0
21.11.2019 11:00:00 9,8 4,2 11,6 7,6 6 4 19 10 E 1009,0 15 58 0,0
21.11.2019 10:00:00 6,7 4,0 2,6 7,7 6 4 15 8 SE 1009,3 11 60 0,0
21.11.2019 09:00:00 2,9 2,3 0,1 7,8 3 1 9 5 NO 1009,9 6 22 0,0
21.11.2019 08:00:00 2,6 1,7 -0,1 7,9 4 2 16 8 O 1009,7 6 0 0,0
21.11.2019 07:00:00 2,5 1,8 -0,4 7,9 4 2 12 7 SE 1009,5 7 0 0,0
21.11.2019 06:00:00 2,7 1,7 0,4 8,0 10 5 14 7 ESE 1009,5 8 0 0,0
21.11.2019 05:00:00 3,7 2,4 1,0 8,1 8 4 11 6 SE 1009,4 7 0 0,0
21.11.2019 04:00:00 5,2 2,9 2,8 8,1 10 5 24 13 E 1009,3 10 0 0,0
21.11.2019 03:00:00 4,8 3,0 0,0 8,2 14 8 23 12 ESE 1009,5 10 0 0,0
21.11.2019 02:00:00 3,3 2,0 0,1 8,2 2 1 8 4 ESE 1010,4 6 0 0,0
21.11.2019 01:00:00 5,2 3,2 3,0 8,2 4 2 13 7 SO 1010,6 10 0 0,0
21.11.2019 00:00:00 5,8 4,3 4,0 8,2 5 3 9 5 ESE 1010,8 13 0 0,0
20.11.2019 23:00:00 6,1 4,4 5,4 8,2 5 3 9 5 ESE 1010,8 12 0 0,0
20.11.2019 22:00:00 5,5 3,5 5,3 8,3 4 2 6 4 E 1011,1 8 0 0,0
20.11.2019 21:00:00 5,8 3,6 5,5 8,3 3 1 6 3 N 1011,3 9 0 0,0
20.11.2019 20:00:00 5,7 3,5 4,4 8,3 4 2 9 5 NO 1011,3 8 0 0,0
20.11.2019 19:00:00 5,3 3,3 2,7 8,3 4 2 10 6 NNO 1011,0 8 0 0,0
20.11.2019 18:00:00 6,7 3,7 4,4 8,2 10 5 11 6 NNO 1011,1 10 0 0,0
20.11.2019 17:00:00 7,9 3,9 5,3 8,0 3 2 8 4 NNE 1011,1 15 3 0,0
20.11.2019 16:00:00 10,2 4,1 10,7 7,9 5 3 10 6 E 1011,1 19 49 0,0
20.11.2019 15:00:00 10,1 4,0 11,1 7,7 5 3 11 6 ENE 1011,4 18 27 0,0
20.11.2019 14:00:00 9,8 3,7 11,2 7,6 6 3 11 6 ENE 1012,0 18 31 0,0
20.11.2019 13:00:00 9,4 3,1 12,2 7,5 4 2 13 7 E 1012,7 17 60 0,0
20.11.2019 12:00:00 7,8 2,7 10,5 7,5 8 5 14 8 ENE 1013,6 16 60 0,0
20.11.2019 11:00:00 5,9 1,8 9,1 7,5 2 1 6 3 N 1014,6 17 60 0,0
20.11.2019 10:00:00 4,3 1,7 0,8 7,6 2 1 7 4 SO 1014,9 17 60 0,0
20.11.2019 09:00:00 0,9 0,3 -2,2 7,7 4 2 5 3 NE 1015,4 12 24 0,0
20.11.2019 08:00:00 0,0 -0,7 -2,7 7,8 2 1 3 2 NO 1015,7 8 0 0,0
20.11.2019 07:00:00 0,2 -0,9 -2,2 7,9 0 0 5 3 N 1015,8 12 0 0,0
20.11.2019 06:00:00 1,2 -0,3 -1,1 7,9 3 2 6 3 E 1015,8 13 0 0,0
20.11.2019 05:00:00 1,5 0,0 -0,8 8,0 4 2 7 4 NNE 1016,4 16 0 0,0
20.11.2019 04:00:00 2,4 0,0 -0,5 8,0 0 0 8 5 N 1016,6 35 0 0,0
20.11.2019 03:00:00 4,1 0,6 2,4 8,0 7 4 10 6 N 1016,9 42 0 0,0
20.11.2019 02:00:00 5,2 1,5 4,7 8,0 7 4 10 6 N 1016,9 47 0 0,0
20.11.2019 01:00:00 5,6 1,5 5,1 8,1 6 3 12 6 N 1017,0 51 0 0,0
20.11.2019 00:00:00 5,9 1,4 5,4 8,1 8 4 11 6 NNO 1017,3 54 0 0,0
19.11.2019 23:00:00 6,0 1,1 5,5 8,1 6 4 13 7 NO 1017,5 59 0 0,0
19.11.2019 22:00:00 6,1 1,2 5,7 8,1 8 5 18 10 N 1017,6 59 0 0,0
19.11.2019 21:00:00 6,3 1,2 5,9 8,1 9 5 17 9 NNO 1017,6 58 0 0,0
19.11.2019 20:00:00 6,5 1,6 6,0 8,1 13 7 24 13 N 1017,9 56 0 0,0
19.11.2019 19:00:00 6,8 1,9 6,3 8,1 14 8 29 16 N 1017,8 57 0 0,0
19.11.2019 18:00:00 6,9 2,4 6,5 8,1 18 10 29 16 NNO 1017,5 42 0 0,0
19.11.2019 17:00:00 7,0 2,9 6,7 8,0 19 10 33 18 N 1017,3 39 0 0,0
19.11.2019 16:00:00 7,2 3,2 7,1 7,9 20 11 31 17 N 1017,1 33 0 0,0
19.11.2019 15:00:00 7,5 3,4 7,7 7,9 19 11 38 20 N 1016,9 31 0 0,0
19.11.2019 14:00:00 7,6 3,4 8,0 7,8 20 11 33 18 NNO 1016,8 35 0 0,0
19.11.2019 13:00:00 7,8 3,8 8,7 7,7 19 11 33 18 N 1016,9 30 0 0,0
19.11.2019 12:00:00 7,4 4,5 7,3 7,7 20 11 32 17 N 1017,3 26 0 0,0
19.11.2019 11:00:00 6,8 3,9 7,1 7,7 21 11 31 17 N 1017,8 18 0 0,0
19.11.2019 10:00:00 6,3 4,0 5,1 7,8 14 7 23 13 NNO 1017,6 15 0 0,0
19.11.2019 09:00:00 5,2 3,5 4,6 7,8 10 5 21 11 N 1017,5 11 0 0,0
19.11.2019 08:00:00 5,2 3,4 4,2 7,8 11 6 21 11 NNO 1016,8 9 0 0,0
19.11.2019 07:00:00 5,3 3,3 4,8 7,8 13 7 19 11 NNO 1016,5 11 0 0,0
19.11.2019 06:00:00 5,1 2,9 4,6 7,8 9 5 15 8 NNO 1016,2 12 0 0,0
19.11.2019 05:00:00 4,8 2,5 4,5 7,8 8 4 13 7 NNO 1016,5 12 0 0,0
19.11.2019 04:00:00 4,8 2,2 4,4 7,9 8 5 11 6 NNO 1016,5 12 0 0,0
19.11.2019 03:00:00 4,7 1,9 4,3 7,9 6 3 14 7 NNO 1016,7 12 0 0,0
19.11.2019 02:00:00 4,6 1,6 3,7 8,0 7 4 13 7 NO 1017,0 12 0 0,0
19.11.2019 01:00:00 4,3 1,5 3,2 8,1 7 4 11 6 NNO 1017,2 14 0 0,0
19.11.2019 00:00:00 4,1 1,3 0,4 8,1 8 4 13 7 NO 1017,6 14 0 0,0
18.11.2019 23:00:00 1,6 0,3 -1,3 8,2 7 4 9 5 NNO 1017,8 16 0 0,0
18.11.2019 22:00:00 2,0 -0,4 -0,8 8,2 7 4 8 4 NNO 1017,5 17 0 0,0
18.11.2019 21:00:00 4,0 0,5 2,0 8,3 6 3 16 9 N 1017,3 21 0 0,0
18.11.2019 20:00:00 5,5 1,0 4,2 8,3 9 5 13 7 NNO 1017,2 24 0 0,0
18.11.2019 19:00:00 6,1 1,6 5,2 8,3 9 5 19 10 N 1016,5 34 0 0,0
18.11.2019 18:00:00 6,8 1,7 5,8 8,2 10 5 16 8 NNO 1015,9 29 0 0,0
18.11.2019 17:00:00 7,2 2,1 6,4 8,1 10 5 18 10 N 1015,3 35 0 0,0
18.11.2019 16:00:00 7,9 2,8 7,7 7,9 11 6 21 12 NNE 1015,0 30 0 0,0
18.11.2019 15:00:00 8,9 2,2 9,6 7,8 10 6 23 12 N 1014,3 37 14 0,0
18.11.2019 14:00:00 9,6 2,4 12,2 7,6 15 8 23 12 N 1013,8 20 55 0,0
18.11.2019 13:00:00 9,0 3,0 10,1 7,5 7 4 15 8 N 1014,0 37 37 0,0
18.11.2019 12:00:00 8,1 2,5 9,7 7,4 9 5 15 8 N 1014,0 20 45 0,0
18.11.2019 11:00:00 7,4 4,2 6,3 7,4 5 3 10 5 NNO 1014,0 10 58 0,0
18.11.2019 10:00:00 5,2 3,8 4,2 7,5 3 1 7 4 NNE 1014,1 6 41 0,0
18.11.2019 09:00:00 3,3 3,0 0,5 7,5 2 1 4 2 E 1014,0 3,0 16 0,0
18.11.2019 08:00:00 2,7 2,0 0,4 7,5 0 0 4 2 N 1013,6 2,5 0 0,0
18.11.2019 07:00:00 3,1 2,7 2,5 7,5 2 1 4 2 NNE 1013,2 3,0 0 0,0
18.11.2019 06:00:00 3,1 2,5 2,6 7,6 2 1 5 3 ESE 1012,6 2,8 0 0,0
18.11.2019 05:00:00 3,2 2,6 2,6 7,6 4 2 5 3 ENE 1011,8 2,7 0 0,0
18.11.2019 04:00:00 3,1 2,5 2,4 7,6 3 1 5 3 NE 1011,4 3,6 0 0,0
18.11.2019 03:00:00 3,3 2,7 2,6 7,7 3 2 7 4 ENE 1011,1 3,2 0 0,0
18.11.2019 02:00:00 3,4 2,8 2,7 7,7 4 2 6 4 E 1010,7 2,9 0 0,0
18.11.2019 01:00:00 3,4 2,7 2,1 7,7 3 2 5 3 ENE 1010,4 2,1 0 0,0
18.11.2019 00:00:00 3,5 2,6 2,5 7,7 3 1 5 3 NNO 1010,3 3,6 0 0,0
17.11.2019 23:00:00 3,7 2,7 3,1 7,7 3 2 7 4 E 1009,9 4,4 0 0,0
17.11.2019 22:00:00 3,6 2,4 3,3 7,7 3 1 8 4 NE 1009,6 4,8 0 0,0
17.11.2019 21:00:00 3,5 2,3 3,1 7,7 7 4 10 5 ENE 1009,2 6 0 0,0
17.11.2019 20:00:00 3,7 2,4 3,0 7,7 5 3 8 4 E 1008,8 5 0 0,0
17.11.2019 19:00:00 3,9 2,3 3,4 7,7 0 0 9 5 N 1008,7 6 0 0,0
17.11.2019 18:00:00 4,4 2,7 3,9 7,6 4 2 8 4 SSE 1008,5 7 0 0,0
17.11.2019 17:00:00 4,3 2,5 4,2 7,5 4 2 14 7 ESE 1008,5 8 0 0,0
17.11.2019 16:00:00 4,7 2,6 4,9 7,4 9 5 14 8 ESE 1007,9 8 0 0,0
17.11.2019 15:00:00 5,5 2,8 5,8 7,3 7 4 11 6 ESE 1007,1 12 0 0,0
17.11.2019 14:00:00 5,3 2,3 5,8 7,1 6 3 16 9 E 1007,0 15 0 0,0
17.11.2019 13:00:00 6,1 2,5 8,1 7,0 10 5 24 13 NE 1007,1 18 15 0,0
17.11.2019 12:00:00 6,0 2,5 9,1 7,0 12 7 22 12 NO 1007,4 24 60 0,0
17.11.2019 11:00:00 3,3 1,7 4,5 7,0 10 5 19 10 N 1008,1 16 42 0,0
17.11.2019 10:00:00 2,1 2,0 1,9 6,9 6 3 11 6 NNE 1008,3 4,4 2 0,0
17.11.2019 09:00:00 1,4 1,4 1,3 7,0 5 3 11 6 NO 1008,4 1,7 0 0,0
17.11.2019 08:00:00 1,1 1,1 0,5 7,0 4 2 10 5 OSO 1008,5 0,2 0 0,0
17.11.2019 07:00:00 0,4 0,4 0,3 7,0 5 3 8 4 OSO 1008,6 0,2 0 0,0
17.11.2019 06:00:00 0,3 0,3 -0,1 7,1 5 3 9 5 OSO 1008,8 0,1 0 0,0
17.11.2019 05:00:00 0,1 0,0 -0,4 7,2 5 3 9 5 S 1009,1 0,1 0 0,0
17.11.2019 04:00:00 -0,3 -0,4 -0,8 7,2 3 2 6 3 OSO 1009,4 0,1 0 0,0
17.11.2019 03:00:00 0,1 -0,2 -0,2 7,3 4 2 5 3 SSE 1009,6 0,1 0 0,0
17.11.2019 02:00:00 0,4 0,0 -0,5 7,4 3 2 9 5 ESE 1009,7 0,2 0 0,0
17.11.2019 01:00:00 1,5 0,9 -0,5 7,5 4 2 6 3 S 1010,1 2,0 0 0,0
17.11.2019 00:00:00 1,4 1,0 -1,6 7,5 2 1 11 6 ESE 1010,8 6 0 0,0
16.11.2019 23:00:00 1,2 0,3 -1,9 7,6 5 3 8 4 OSO 1011,0 12 0 0,0
16.11.2019 22:00:00 2,2 0,7 -0,2 7,6 3 2 11 6 O 1010,9 30 0 0,0
16.11.2019 21:00:00 3,1 1,0 0,3 7,7 3 2 15 8 ESE 1010,7 19 0 0,0
16.11.2019 20:00:00 2,6 1,0 0,3 7,7 5 3 16 9 SE 1011,1 20 0 0,0
16.11.2019 19:00:00 3,2 1,4 0,7 7,7 6 3 12 7 E 1010,8 26 0 0,0
16.11.2019 18:00:00 4,3 2,2 1,1 7,6 4 2 9 5 ESE 1010,2 14 0 0,0
16.11.2019 17:00:00 6,4 2,8 3,5 7,4 5 3 23 12 SSE 1009,7 44 24 0,0
16.11.2019 16:00:00 8,0 2,9 8,2 7,3 15 8 29 16 S 1009,4 45 60 0,0
16.11.2019 15:00:00 8,1 3,0 9,5 7,1 17 9 32 18 S 1009,0 54 60 0,0
16.11.2019 14:00:00 7,4 2,9 8,2 7,0 18 10 31 17 SSE 1009,3 35 60 0,0
16.11.2019 13:00:00 5,9 2,4 7,7 6,9 6 3 22 12 SSE 1010,0 32 44 0,0
16.11.2019 12:00:00 5,1 1,9 4,6 6,9 17 9 31 17 SSE 1010,8 14 29 0,0
16.11.2019 11:00:00 2,6 0,7 3,1 6,9 10 5 21 11 SSO 1011,4 12 11 0,0
16.11.2019 10:00:00 2,0 0,4 2,2 6,9 14 8 21 11 S 1011,1 11 48 0,0
16.11.2019 09:00:00 1,0 0,4 0,6 7,0 8 5 11 6 S 1010,6 11 47 0,0
16.11.2019 08:00:00 0,5 0,2 0,1 7,0 8 4 15 8 SSE 1010,0 8 0 0,0

tt = Temperatura
td = dewpoint
tt 5cm = Temperatura 5cm
tt -20cm = Temperatura -20cm
ff = velocità del vento
fx = gusts
dd = direzione del vento
ppp = reduced air pressure
vv = visibility
sd = ore di luce
rr = precipitazioni

Stazioni seguenti

WeatherPro
AMSI
MeteoEarth